Location: *
(1.3500°S, 147.5000°W)
Time: 19:16:40
(UTC+00:00)

Cosmos 676 Rocket - Pass Details

Date: 07 April 2020
Orbit: 755 x 783 km, 74.0° (Epoch: 27 May)

Event Time Altitude Azimuth Distance (km) Brightness Sun altitude
Rises 05:02:15 0° 183° (S) 3,270 7.2 -17.6°
Reaches altitude 10° 05:04:43 10° 178° (S) 2,339 6.4 -18.2°
Maximum altitude 05:09:52 51° 102° (ESE) 976 4.1 -19.5°
Drops below altitude 10° 05:14:59 10° 27° (NNE) 2,319 6.3 -20.7°
Sets 05:17:24 0° 22° (NNE) 3,240 7.1 -21.3°
